Location: Bogotá
(4.6533°N, 74.0837°W)
Time: 14:09:06
(UTC+00:00)

ISS - Pass Details

Date: 12 July 2025
Orbit: 413 x 417 km, 51.6° (Epoch: 13 July)

Event Time Altitude Azimuth Distance (km) Brightness Sun altitude
Exits shadow 10:24:47 - 273° (W) 1,748 -1.2 -6.9°
Reaches altitude 10° 10:26:10 10° 253° (WSW) 1,483 -1.7 -6.5°
Maximum altitude 10:27:13 11° 235° (SW) 1,416 -1.7 -6.3°
Drops below altitude 10° 10:28:16 10° 216° (SW) 1,484 -1.5 -6.1°
Sets 10:31:40 0° 179° (S) 2,348 -0.2 -5.3°
